Location: Beuvrequen
(50.8014°N, 1.6652°E)
Time: 07:32:12
(UTC+00:00)

Cosmos 1125 Rocket - Visible Passes

Search period start: 17 May 2022 00:00
Search period end: 27 May 2022 00:00
Orbit: 758 x 779 km, 74.0° (Epoch: 16 May)

Date Brightness Start Highest point End Pass type
(mag) Time Alt. Az. Time Alt. Az. Time Alt. Az.
17 May 4.5 01:46:08 15° SSE 01:50:00 38° ESE 01:54:48 10° NE visible
18 May 5.1 01:09:56 13° SE 01:13:16 24° E 01:17:24 10° NE visible
18 May 3.8 02:50:12 12° SW 02:54:58 57° WNW 03:00:07 10° NNE visible
19 May 5.7 00:33:42 10° SE 00:36:37 15° E 00:39:35 10° ENE visible
19 May 3.5 02:13:58 18° SSW 02:17:57 88° WNW 02:23:11 10° NNE visible
20 May 3.8 01:37:42 22° S 01:41:00 60° ESE 01:46:08 10° NNE visible
21 May 4.4 01:01:24 21° SSE 01:04:10 38° ESE 01:08:57 10° NE visible
21 May 4.4 02:41:40 11° WSW 02:46:15 38° NW 02:51:08 10° NNE visible
22 May 5.1 00:25:04 18° SE 00:27:26 24° E 00:31:33 10° NE visible
22 May 3.8 02:05:20 18° SW 02:09:07 58° WNW 02:14:17 10° NNE visible
22 May 5.5 23:48:43 12° ESE 23:50:48 15° E 23:53:42 10° ENE visible
23 May 3.5 01:28:59 25° SSW 01:32:06 89° WNW 01:37:21 10° NNE visible
23 May 5.4 03:11:14 10° W 03:14:58 19° NW 03:18:42 10° N visible
24 May 3.7 00:52:36 28° S 00:55:10 59° ESE 01:00:18 10° NNE visible
24 May 4.9 02:33:14 10° WSW 02:37:37 27° NW 02:42:04 10° N visible
25 May 4.4 00:16:12 26° SSE 00:18:21 37° ESE 00:23:07 10° NE visible
25 May 4.4 01:56:27 15° WSW 02:00:24 39° NW 02:05:18 10° NNE visible
25 May 5.0 23:39:46 19° SE 23:41:37 24° E 23:45:41 10° NE visible
26 May 3.8 01:20:01 22° SW 01:23:17 59° WNW 01:28:27 10° NNE visible
26 May 5.7 03:03:45 10° WNW 03:06:32 14° NW 03:09:20 10° N visible
26 May 5.4 23:03:18 13° ESE 23:04:59 15° E 23:07:48 10° ENE visible
